Starlink 32821

operational
NORAD ID: 63078 Int'l Des: 2025-037 Owner: SPXS Country: US Constellation: starlink
LEOCIRCULAR

Starlink 32821について

説明を読み込み中...

リアルタイム位置

3D地球を読み込み中...

次回通過

高度履歴

Altitude vs Time

uPlot chart will show altitude changes over time

軌道要素

1 63078U 25037B 25259.20409675 .00002260 00000-0 19712-3 0 9990
2 63078 70.0018 74.4814 0002449 269.1694 90.9185 14.98336344 32457
Epoch: Sep 16, 2025 • Age: 10 hours

現在のステータス

高度 584.7 km
速度 7.57 km/s
衛星直下点 67.11°N, 25.85°W
打ち上げ日 Feb 23, 2025
運用期間 0.5 years
タイプ internet

技術仕様

分類 Payload
質量 730.00 kg
乾燥質量 700.00 kg
総質量 730.00 kg
長さ 0.30 m
直径 4.10 m
スパン 29.00 m
形状 Box + pan
製造者 SPXS
バスタイプ Starlink V2M
フェーズステータス In Orbit
所有者/国 SPXS/US

大規模コンステレーション

Loading constellations...